Weather in Hamamozu

Turkey     40°47′01″N   35°01′25″E
temp.,
°C
wind,
m/s
gust,
m/s
humid.,
%
clouds,
%
prec.,
mm/h
press.,
hPa
HPBL,
m
6 march, sat
sat600:00+3s33550 0.0 102127
03:00+3s33520 0.0 102126
06:00+2s335227 0.0 102125
09:00+5ssw235264 0.0 1021107
12:00+9wsw3740100 0.0 1019744
15:00+10wsw4735100 0.0 10171093
18:00+8sw1243100 0.0 101823
21:00+6sse1248100 0.0 102122
7 march, sun
sun700:00+5w1267100 0.0 102258
03:00+3nnw229298 0.3 1023177
06:00+1n3398100 3.1 1024212
09:000ne2397100 5.9 1025200
12:00+1nne2393100 0.7 1024367
15:00+1ene2292100 1.3 1023345
18:00−1e239298 0.4 1022285
21:00−2ene239397 0.6 1023199
8 march, mon
mon800:00−3ne129384 0.0 1022130
03:00−3nne119391 0.1 1021127
06:00−3nnw119394 0.1 1020126
09:00−2w018687 0.1 1020275
12:00+1sw227289 0.1 1018709
15:00+3wsw235793 0.1 10161109
18:00+2ssw11597 0.0 101639
21:00−1se12687 0.0 101823
9 march, tue
tue900:00−1sse12701 0.0 101822
03:00−1ssw11710 0.0 101821
06:00−2wnw017415 0.0 101921
09:00+1sw116244 0.0 1020192
12:00+4w2339100 0.0 1018983
15:00+6w223087 0.0 10171223
18:00+4ne114583 0.0 101723
21:00+1ese236891 0.0 101930
10 march, wed
wed1000:00+1e127799 0.0 101925
03:000ene117899 0.0 101823
06:000ene1175100 0.0 101723
09:00+2ne1265100 0.0 1017195
12:00+6ene224999 0.0 1015723
15:00+8ene224699 0.0 10121108
18:00+5ne3359100 0.0 1012545
21:00+2ne3382100 0.0 1013356